TimeCST,TemperatureF,Dew PointF,Humidity,Sea Level PressureIn,VisibilityMPH,Wind Direction,Wind SpeedMPH,Gust SpeedMPH,PrecipitationIn,Events,Conditions,WindDirDegrees,DateUTC
12:27 AM,44.6,41.0,87,30.08,8.0,NNW,6.9,-,N/A,,Overcast,330,2012-11-06 06:27:00
12:57 AM,44.1,41.0,89,30.08,7.0,North,6.9,-,N/A,,Overcast,350,2012-11-06 06:57:00
1:16 AM,42.8,39.2,87,30.08,7.0,NNW,5.8,-,N/A,,Overcast,340,2012-11-06 07:16:00
1:39 AM,42.8,39.2,87,30.08,5.0,NNW,5.8,-,N/A,,Overcast,340,2012-11-06 07:39:00
1:46 AM,42.8,39.2,87,30.08,6.0,NNW,5.8,-,N/A,,Overcast,330,2012-11-06 07:46:00
1:57 AM,43.0,39.9,89,30.09,6.0,NNW,6.9,-,N/A,,Overcast,330,2012-11-06 07:57:00
2:17 AM,42.8,39.2,87,30.08,7.0,NNW,5.8,-,N/A,,Overcast,330,2012-11-06 08:17:00
2:57 AM,42.8,39.2,87,30.08,8.0,North,4.6,-,N/A,,Overcast,360,2012-11-06 08:57:00
2:59 AM,43.0,39.0,86,30.08,8.0,North,5.8,-,N/A,,Overcast,360,2012-11-06 08:59:00
3:57 AM,43.0,39.0,86,30.08,10.0,NNW,3.5,-,N/A,,Overcast,340,2012-11-06 09:57:00
4:18 AM,42.8,37.4,81,30.08,10.0,NW,4.6,-,N/A,,Overcast,310,2012-11-06 10:18:00
4:57 AM,43.0,37.0,80,30.09,10.0,North,3.5,-,N/A,,Overcast,360,2012-11-06 10:57:00
5:43 AM,42.8,37.4,81,30.07,10.0,Variable,3.5,-,N/A,,Overcast,0,2012-11-06 11:43:00
5:57 AM,43.0,37.9,82,30.09,10.0,Calm,Calm,-,N/A,,Overcast,0,2012-11-06 11:57:00
6:57 AM,42.1,37.9,85,30.12,10.0,NW,5.8,-,N/A,,Overcast,310,2012-11-06 12:57:00
7:57 AM,43.0,37.9,82,30.12,10.0,West,4.6,-,N/A,,Overcast,260,2012-11-06 13:57:00
8:57 AM,44.6,37.4,76,30.12,10.0,West,4.6,-,N/A,,Overcast,280,2012-11-06 14:57:00
8:59 AM,44.1,37.9,79,30.13,10.0,West,4.6,-,N/A,,Overcast,280,2012-11-06 14:59:00
9:19 AM,44.6,37.4,76,30.10,10.0,WSW,3.5,-,N/A,,Overcast,240,2012-11-06 15:19:00
9:57 AM,48.0,39.0,71,30.10,10.0,WSW,9.2,-,N/A,,Clear,250,2012-11-06 15:57:00
10:57 AM,50.0,39.0,66,30.10,10.0,SW,5.8,-,N/A,,Clear,230,2012-11-06 16:57:00
11:57 AM,54.0,41.0,62,30.06,10.0,SW,10.4,-,N/A,,Clear,230,2012-11-06 17:57:00
12:57 PM,57.0,41.0,55,30.04,10.0,WSW,10.4,16.1,N/A,,Clear,250,2012-11-06 18:57:00
1:57 PM,57.9,39.9,51,30.02,10.0,West,13.8,-,N/A,,Clear,280,2012-11-06 19:57:00
2:57 PM,55.9,39.9,55,30.03,10.0,West,18.4,-,N/A,,Clear,280,2012-11-06 20:57:00
3:57 PM,55.0,41.0,59,30.03,10.0,WNW,11.5,-,N/A,,Clear,290,2012-11-06 21:57:00
4:57 PM,53.1,39.9,61,30.04,10.0,West,6.9,-,N/A,,Clear,280,2012-11-06 22:57:00
5:57 PM,51.1,39.9,66,30.05,10.0,WSW,5.8,-,N/A,,Clear,240,2012-11-06 23:57:00
6:57 PM,50.0,39.9,68,30.07,10.0,WSW,5.8,-,N/A,,Clear,250,2012-11-07 00:57:00
7:57 PM,48.0,39.0,71,30.08,10.0,WNW,5.8,-,N/A,,Clear,300,2012-11-07 01:57:00
8:57 PM,46.9,37.0,68,30.09,10.0,WNW,4.6,-,N/A,,Clear,300,2012-11-07 02:57:00
9:57 PM,46.0,36.0,68,30.10,10.0,WNW,3.5,-,N/A,,Clear,290,2012-11-07 03:57:00
10:57 PM,44.1,35.1,71,30.09,10.0,West,3.5,-,N/A,,Clear,280,2012-11-07 04:57:00
11:57 PM,43.0,30.9,62,30.09,10.0,West,4.6,-,N/A,,Clear,270,2012-11-07 05:57:00